THY6QY LTCK-LTFM

Flight info

Callsign THY6QY
Flight time 1h 48m
Altitude 36000
Route BAYIR UT888 SIV UL615 TIMOP UT97 KANQO
Aircraft A319/M-SDE3FGHIRWY/LB1

Departure

Time 2026-05-01 12:55
Airport Muş Airport (LTCK)

Arrival

Time 2026-05-01 14:44
Airport İstanbul Airport (LTFM)
Time Latitude Longitude Altitude Speed Heading
2026-05-01 12:38 38.75861 41.64653 4172 ft 0 kts 70°
2026-05-01 12:46 38.75861 41.64652 4172 ft 0 kts 70°
2026-05-01 12:47 38.75861 41.64653 4172 ft 1 kts 68°
2026-05-01 12:47 38.75861 41.64659 4172 ft 0 kts 107°
2026-05-01 12:47 38.75855 41.64667 4172 ft 2 kts 142°
2026-05-01 12:47 38.75827 41.64640 4172 ft 8 kts 251°
2026-05-01 12:48 38.75790 41.64571 4172 ft 10 kts 214°
2026-05-01 12:48 38.75717 41.64521 4172 ft 12 kts 206°
2026-05-01 12:48 38.75645 41.64475 4171 ft 11 kts 207°
2026-05-01 12:48 38.75571 41.64429 4168 ft 11 kts 206°
2026-05-01 12:49 38.75503 41.64386 4168 ft 10 kts 207°
2026-05-01 12:49 38.75447 41.64401 4168 ft 8 kts 128°
2026-05-01 12:49 38.75417 41.64479 4168 ft 13 kts 116°
2026-05-01 12:49 38.75355 41.64632 4168 ft 25 kts 117°
2026-05-01 12:50 38.75261 41.64878 4168 ft 35 kts 116°
2026-05-01 12:50 38.75138 41.65196 4168 ft 40 kts 116°
2026-05-01 12:50 38.75019 41.65500 4168 ft 35 kts 117°
2026-05-01 12:50 38.74900 41.65811 4168 ft 45 kts 115°
2026-05-01 12:51 38.74758 41.66178 4168 ft 43 kts 118°
2026-05-01 12:51 38.74632 41.66504 4168 ft 38 kts 117°
2026-05-01 12:51 38.74425 41.67033 4168 ft 28 kts 116°
2026-05-01 12:52 38.74341 41.67252 4168 ft 25 kts 117°
2026-05-01 12:52 38.74206 41.67607 4169 ft 19 kts 117°
2026-05-01 12:52 38.74148 41.67751 4169 ft 16 kts 115°
2026-05-01 12:53 38.74074 41.67919 4169 ft 5 kts 344°
2026-05-01 12:53 38.74099 41.67888 4169 ft 4 kts 291°
2026-05-01 12:53 38.74108 41.67859 4169 ft 0 kts 295°
2026-05-01 12:54 38.74123 41.67820 4169 ft 25 kts 296°
2026-05-01 12:54 38.74686 41.66363 4169 ft 149 kts 295°
2026-05-01 12:54 38.75206 41.65080 4471 ft 166 kts 297°
2026-05-01 12:55 38.76266 41.62451 5591 ft 170 kts 292°
2026-05-01 12:55 38.76783 41.61086 6087 ft 172 kts 291°
2026-05-01 12:55 38.77290 41.59651 6447 ft 182 kts 290°
2026-05-01 12:56 38.77810 41.58131 6825 ft 192 kts 290°
2026-05-01 12:56 38.78388 41.56515 7069 ft 212 kts 293°
2026-05-01 12:56 38.79050 41.54752 7346 ft 231 kts 293°
2026-05-01 12:56 38.79788 41.52772 7619 ft 253 kts 293°
2026-05-01 12:57 38.80575 41.50676 8023 ft 271 kts 294°
2026-05-01 12:57 38.82307 41.46203 9341 ft 286 kts 300°
2026-05-01 12:57 38.83607 41.44311 10092 ft 293 kts 321°
2026-05-01 12:58 38.85450 41.43082 10604 ft 309 kts 343°
2026-05-01 12:58 38.87667 41.42892 10879 ft 333 kts
2026-05-01 12:58 38.89874 41.43978 11343 ft 348 kts 33°
2026-05-01 12:59 38.92515 41.49224 12131 ft 373 kts 83°
2026-05-01 12:59 38.92312 41.52441 12959 ft 366 kts 109°
2026-05-01 12:59 38.89153 41.57073 14572 ft 350 kts 158°
2026-05-01 13:00 38.84611 41.59507 15825 ft 359 kts 159°
2026-05-01 13:00 38.82367 41.60915 16477 ft 362 kts 156°
2026-05-01 13:01 38.77716 41.63339 17666 ft 361 kts 178°
2026-05-01 13:01 38.75252 41.63109 18267 ft 358 kts 197°
2026-05-01 13:01 38.71133 41.59748 19427 ft 358 kts 231°
2026-05-01 13:02 38.69606 41.57219 19997 ft 362 kts 233°
2026-05-01 13:07 38.73331 40.89771 29397 ft 423 kts 286°
2026-05-01 13:07 38.74297 40.86196 29763 ft 425 kts 286°
2026-05-01 13:07 38.75273 40.82581 30113 ft 426 kts 286°
2026-05-01 13:08 38.76229 40.79035 30594 ft 425 kts 286°
2026-05-01 13:08 38.77187 40.75482 31096 ft 422 kts 286°
2026-05-01 13:08 38.78145 40.71922 31554 ft 421 kts 286°
2026-05-01 13:08 38.79091 40.68402 32021 ft 419 kts 286°
2026-05-01 13:09 38.80029 40.64905 32451 ft 417 kts 286°
2026-05-01 13:09 38.80972 40.61384 32880 ft 416 kts 286°
2026-05-01 13:09 38.81915 40.57856 33295 ft 415 kts 286°
2026-05-01 13:09 38.82842 40.54385 33699 ft 413 kts 286°
2026-05-01 13:10 38.83769 40.50905 34088 ft 412 kts 286°
2026-05-01 13:10 38.84698 40.47418 34470 ft 411 kts 286°
2026-05-01 13:10 38.85607 40.44000 34788 ft 410 kts 285°
2026-05-01 13:10 38.86531 40.40518 35089 ft 409 kts 285°
2026-05-01 13:11 38.87448 40.37059 35347 ft 409 kts 285°
2026-05-01 13:11 38.88361 40.33611 35610 ft 409 kts 285°
2026-05-01 13:11 38.89268 40.30179 35895 ft 408 kts 285°
2026-05-01 13:11 38.90165 40.26783 36163 ft 407 kts 285°
2026-05-01 13:12 38.91074 40.23333 36427 ft 406 kts 285°
2026-05-01 13:12 38.91974 40.19920 36722 ft 406 kts 285°
2026-05-01 13:12 38.92878 40.16487 36957 ft 406 kts 285°
2026-05-01 13:12 38.93782 40.13036 37156 ft 408 kts 285°
2026-05-01 13:13 38.94688 40.09580 37342 ft 409 kts 285°
2026-05-01 13:13 38.95583 40.06163 37524 ft 410 kts 285°
2026-05-01 13:13 38.96497 40.02668 37701 ft 410 kts 285°
2026-05-01 13:13 38.97391 39.99247 37870 ft 411 kts 285°
2026-05-01 13:14 38.98309 39.95727 38001 ft 412 kts 285°
2026-05-01 13:14 39.00121 39.88761 38002 ft 414 kts 285°
2026-05-01 13:15 39.01942 39.81746 38013 ft 414 kts 285°
2026-05-01 13:15 39.03755 39.74746 38015 ft 415 kts 285°
2026-05-01 13:16 39.05567 39.67721 38014 ft 416 kts 285°
2026-05-01 13:16 39.07374 39.60699 38011 ft 415 kts 285°
2026-05-01 13:17 39.10968 39.46665 38012 ft 414 kts 285°
2026-05-01 13:18 39.13658 39.36109 38000 ft 414 kts 285°
2026-05-01 13:18 39.15564 39.29089 38013 ft 415 kts 286°
2026-05-01 13:19 39.17512 39.22124 38016 ft 416 kts 286°
2026-05-01 13:20 39.20428 39.11591 38006 ft 416 kts 286°
2026-05-01 13:20 39.22341 39.04642 38010 ft 416 kts 285°
2026-05-01 13:21 39.25240 38.94057 38010 ft 416 kts 285°
2026-05-01 13:21 39.27153 38.87057 38017 ft 415 kts 285°
2026-05-01 13:22 39.29060 38.80051 38022 ft 416 kts 285°
2026-05-01 13:22 39.30963 38.73040 38016 ft 415 kts 285°
2026-05-01 13:23 39.32877 38.65971 38008 ft 416 kts 285°
2026-05-01 13:23 39.34767 38.58961 38002 ft 417 kts 285°
2026-05-01 13:24 39.36663 38.51918 37991 ft 417 kts 285°
2026-05-01 13:25 39.39518 38.41282 37986 ft 417 kts 285°
2026-05-01 13:25 39.41401 38.34232 37995 ft 417 kts 285°
2026-05-01 13:26 39.43293 38.27140 38010 ft 417 kts 285°
2026-05-01 13:26 39.45169 38.20078 38018 ft 417 kts 285°
2026-05-01 13:27 39.47045 38.13004 38021 ft 418 kts 285°
2026-05-01 13:27 39.49865 38.02330 38010 ft 418 kts 285°
2026-05-01 13:28 39.52660 37.91702 38002 ft 417 kts 285°
2026-05-01 13:29 39.56378 37.77496 37999 ft 418 kts 285°
2026-05-01 13:31 39.61924 37.56152 37996 ft 417 kts 285°
2026-05-01 13:32 39.66504 37.38378 37994 ft 416 kts 285°
2026-05-01 13:33 39.71049 37.20614 37969 ft 417 kts 284°
2026-05-01 13:34 39.74667 37.06367 37953 ft 416 kts 284°
2026-05-01 13:35 39.77359 36.95710 37942 ft 415 kts 284°
2026-05-01 13:36 39.79569 36.84905 37948 ft 411 kts 277°
2026-05-01 13:36 39.81059 36.74018 37948 ft 410 kts 277°
2026-05-01 13:37 39.82044 36.66724 37951 ft 411 kts 277°
2026-05-01 13:37 39.83032 36.59375 37952 ft 411 kts 277°
2026-05-01 13:38 39.84495 36.48445 37947 ft 411 kts 277°
2026-05-01 13:39 39.85461 36.41170 37942 ft 411 kts 277°
2026-05-01 13:39 39.86443 36.33870 37942 ft 411 kts 277°
2026-05-01 13:40 39.87530 36.26544 37937 ft 411 kts 277°
2026-05-01 13:40 39.88511 36.19280 37932 ft 411 kts 276°
2026-05-01 13:41 39.89475 36.11924 37921 ft 410 kts 276°
2026-05-01 13:41 39.90426 36.04670 37910 ft 410 kts 276°
2026-05-01 13:42 39.91381 35.97356 37915 ft 411 kts 276°
2026-05-01 13:42 39.92336 35.90042 37899 ft 410 kts 276°
2026-05-01 13:43 39.93286 35.82743 37906 ft 411 kts 276°
2026-05-01 13:43 39.94231 35.75422 37897 ft 411 kts 276°
2026-05-01 13:44 39.95170 35.68094 37898 ft 410 kts 276°
2026-05-01 13:44 39.96100 35.60801 37900 ft 410 kts 276°
2026-05-01 13:45 39.97028 35.53472 37901 ft 410 kts 276°
2026-05-01 13:45 39.97951 35.46143 37901 ft 411 kts 276°
2026-05-01 13:46 39.98963 35.38867 37903 ft 412 kts 279°
2026-05-01 13:46 40.00497 35.31662 37909 ft 414 kts 284°
2026-05-01 13:47 40.02431 35.24648 37911 ft 415 kts 286°
2026-05-01 13:47 40.04414 35.17583 37908 ft 414 kts 286°
2026-05-01 13:48 40.06386 35.10542 37914 ft 414 kts 286°
2026-05-01 13:48 40.08332 35.03550 37920 ft 412 kts 286°
2026-05-01 13:49 40.10287 34.96515 37920 ft 413 kts 285°
2026-05-01 13:49 40.12233 34.89493 37926 ft 413 kts 286°
2026-05-01 13:50 40.14171 34.82476 37929 ft 413 kts 285°
2026-05-01 13:50 40.16119 34.75402 37930 ft 413 kts 285°
2026-05-01 13:51 40.18055 34.68354 37925 ft 412 kts 286°
2026-05-01 13:51 40.19981 34.61325 37915 ft 413 kts 286°
2026-05-01 13:52 40.21914 34.54258 37918 ft 412 kts 285°
2026-05-01 13:52 40.23818 34.47265 37917 ft 410 kts 285°
2026-05-01 13:53 40.25732 34.40215 37916 ft 411 kts 285°
2026-05-01 13:53 40.28577 34.29705 37936 ft 410 kts 285°
2026-05-01 13:54 40.30469 34.22689 37938 ft 410 kts 284°
2026-05-01 13:54 40.32356 34.15669 37940 ft 410 kts 284°
2026-05-01 13:55 40.34242 34.08635 37937 ft 410 kts 284°
2026-05-01 13:55 40.36126 34.01590 37933 ft 410 kts 284°
2026-05-01 13:56 40.37999 33.94568 37926 ft 411 kts 284°
2026-05-01 13:56 40.39872 33.87512 37935 ft 411 kts 284°
2026-05-01 13:57 40.41429 33.81633 37922 ft 410 kts 284°
2026-05-01 13:57 40.43820 33.73490 37952 ft 412 kts 289°
2026-05-01 13:58 40.46434 33.66791 37940 ft 418 kts 295°
2026-05-01 13:58 40.49569 33.60348 37948 ft 420 kts 298°
2026-05-01 13:59 40.52839 33.54008 37950 ft 420 kts 298°
2026-05-01 13:59 40.56108 33.47658 37941 ft 421 kts 298°
2026-05-01 14:00 40.59358 33.41325 37949 ft 421 kts 298°
2026-05-01 14:00 40.62626 33.34941 37943 ft 421 kts 298°
2026-05-01 14:01 40.65875 33.28576 37955 ft 421 kts 298°
2026-05-01 14:01 40.69128 33.22191 37947 ft 421 kts 298°
2026-05-01 14:02 40.72387 33.15777 37953 ft 421 kts 297°
2026-05-01 14:02 40.75320 33.09163 37954 ft 417 kts 292°
2026-05-01 14:03 40.77904 33.02370 37962 ft 417 kts 291°
2026-05-01 14:03 40.80468 32.95552 37961 ft 416 kts 291°
2026-05-01 14:04 40.83037 32.88714 37964 ft 416 kts 291°
2026-05-01 14:04 40.85166 32.83030 37965 ft 417 kts 291°
2026-05-01 14:05 40.88145 32.75068 38021 ft 417 kts 291°
2026-05-01 14:05 40.90706 32.68206 37981 ft 416 kts 291°
2026-05-01 14:06 40.93245 32.61386 37978 ft 417 kts 291°
2026-05-01 14:06 40.95797 32.54512 37987 ft 417 kts 291°
2026-05-01 14:07 40.98331 32.47674 37996 ft 416 kts 291°
2026-05-01 14:08 41.02124 32.37403 38002 ft 416 kts 291°
2026-05-01 14:08 41.04663 32.30500 38001 ft 416 kts 291°
2026-05-01 14:09 41.07182 32.23640 37996 ft 416 kts 291°
2026-05-01 14:09 41.09671 32.16769 38006 ft 415 kts 289°
2026-05-01 14:10 41.11750 32.09668 38009 ft 411 kts 284°
2026-05-01 14:10 41.13244 32.02411 38042 ft 409 kts 278°
2026-05-01 14:11 41.14165 31.95051 38063 ft 407 kts 273°
2026-05-01 14:11 41.15013 31.83885 38071 ft 407 kts 273°
2026-05-01 14:12 41.15567 31.76434 38090 ft 407 kts 272°
2026-05-01 14:12 41.16111 31.69015 38077 ft 408 kts 273°
2026-05-01 14:13 41.16563 31.62789 38074 ft 408 kts 273°
2026-05-01 14:13 41.17191 31.54109 38087 ft 409 kts 273°
2026-05-01 14:14 41.17725 31.46640 38076 ft 408 kts 273°
2026-05-01 14:14 41.17942 31.39240 38087 ft 407 kts 264°
2026-05-01 14:15 41.17548 31.35568 37797 ft 405 kts 259°
2026-05-01 14:15 41.17017 31.31934 37417 ft 402 kts 258°
2026-05-01 14:15 41.16476 31.28362 36944 ft 400 kts 257°
2026-05-01 14:15 41.15926 31.24767 36426 ft 399 kts 257°
2026-05-01 14:16 41.15382 31.21195 35894 ft 398 kts 257°
2026-05-01 14:16 41.14836 31.17636 35340 ft 398 kts 257°
2026-05-01 14:16 41.14285 31.14036 34788 ft 397 kts 257°
2026-05-01 14:16 41.13742 31.10500 34221 ft 397 kts 257°
2026-05-01 14:17 41.13199 31.06959 33678 ft 399 kts 256°
2026-05-01 14:17 41.12648 31.03373 33090 ft 401 kts 256°
2026-05-01 14:17 41.12085 30.99719 32463 ft 404 kts 256°
2026-05-01 14:17 41.11524 30.96084 31709 ft 406 kts 256°
2026-05-01 14:18 41.10965 30.92474 31019 ft 407 kts 256°
2026-05-01 14:18 41.10397 30.88806 30306 ft 407 kts 256°
2026-05-01 14:18 41.09833 30.85186 29590 ft 405 kts 256°
2026-05-01 14:18 41.09452 30.82749 29113 ft 404 kts 256°
2026-05-01 14:19 41.08702 30.77957 28195 ft 402 kts 256°
2026-05-01 14:19 41.08136 30.74335 27617 ft 397 kts 256°
2026-05-01 14:19 41.07583 30.70801 27189 ft 389 kts 256°
2026-05-01 14:19 41.07037 30.67325 26755 ft 382 kts 256°
2026-05-01 14:20 41.06506 30.63947 26337 ft 379 kts 256°
2026-05-01 14:20 41.05428 30.57126 25479 ft 376 kts 257°
2026-05-01 14:20 41.04895 30.53765 25053 ft 374 kts 256°
2026-05-01 14:21 41.04362 30.50408 24633 ft 372 kts 257°
2026-05-01 14:21 41.03830 30.47064 24208 ft 370 kts 257°
2026-05-01 14:21 41.03308 30.43785 23796 ft 368 kts 257°
2026-05-01 14:22 41.02249 30.37161 22948 ft 366 kts 257°
2026-05-01 14:22 41.01725 30.33887 22540 ft 364 kts 257°
2026-05-01 14:22 41.01207 30.30663 22130 ft 362 kts 257°
2026-05-01 14:22 41.00678 30.27375 21717 ft 360 kts 257°
2026-05-01 14:23 41.00165 30.24186 21326 ft 359 kts 257°
2026-05-01 14:23 40.99646 30.20972 20930 ft 358 kts 257°
2026-05-01 14:23 40.99127 30.17761 20473 ft 355 kts 257°
2026-05-01 14:23 40.98609 30.14563 19990 ft 353 kts 257°
2026-05-01 14:24 40.98097 30.11415 19495 ft 353 kts 257°
2026-05-01 14:24 40.97585 30.08264 18994 ft 352 kts 257°
2026-05-01 14:24 40.97073 30.05124 18503 ft 351 kts 258°
2026-05-01 14:24 40.96556 30.01958 18020 ft 350 kts 258°
2026-05-01 14:25 40.96047 29.98847 17525 ft 350 kts 258°
2026-05-01 14:25 40.95537 29.95731 17019 ft 349 kts 258°
2026-05-01 14:25 40.95026 29.92609 16489 ft 349 kts 258°
2026-05-01 14:25 40.94505 29.89440 15916 ft 351 kts 258°
2026-05-01 14:26 40.94107 29.86303 15399 ft 350 kts 265°
2026-05-01 14:26 40.93943 29.79916 14569 ft 343 kts 269°
2026-05-01 14:26 40.93882 29.76830 14237 ft 337 kts 268°
2026-05-01 14:27 40.93807 29.73735 13880 ft 335 kts 268°
2026-05-01 14:27 40.93721 29.70692 13543 ft 334 kts 268°
2026-05-01 14:27 40.93626 29.67618 13199 ft 334 kts 268°
2026-05-01 14:28 40.93423 29.61522 12295 ft 333 kts 268°
2026-05-01 14:28 40.93317 29.58467 11830 ft 334 kts 268°
2026-05-01 14:28 40.93211 29.55424 11299 ft 336 kts 268°
2026-05-01 14:28 40.93100 29.52310 10788 ft 338 kts 269°
2026-05-01 14:29 40.92991 29.49251 10434 ft 333 kts 269°
2026-05-01 14:29 40.92882 29.46225 10218 ft 324 kts 269°
2026-05-01 14:30 40.92575 29.37962 9706 ft 280 kts 270°
2026-05-01 14:30 40.92479 29.35407 9329 ft 278 kts 270°
2026-05-01 14:30 40.92386 29.32861 8973 ft 278 kts 269°
2026-05-01 14:31 40.92198 29.27760 8276 ft 281 kts 269°
2026-05-01 14:31 40.92101 29.25178 7928 ft 282 kts 269°
2026-05-01 14:31 40.92003 29.22597 7579 ft 283 kts 269°
2026-05-01 14:31 40.91903 29.20017 7241 ft 283 kts 270°
2026-05-01 14:32 40.91803 29.17437 6902 ft 284 kts 270°
2026-05-01 14:32 40.91701 29.14840 6563 ft 285 kts 270°
2026-05-01 14:32 40.91600 29.12243 6224 ft 286 kts 270°
2026-05-01 14:32 40.91497 29.09613 5877 ft 286 kts 270°
2026-05-01 14:33 40.91395 29.07033 5586 ft 284 kts 270°
2026-05-01 14:33 40.91291 29.04468 5508 ft 275 kts 270°
2026-05-01 14:33 40.91196 29.01978 5410 ft 267 kts 272°
2026-05-01 14:33 40.91259 28.99584 5244 ft 259 kts 279°
2026-05-01 14:34 40.91455 28.97217 5043 ft 254 kts 281°
2026-05-01 14:34 40.91666 28.94942 4955 ft 246 kts 282°
2026-05-01 14:34 40.91871 28.92730 4955 ft 245 kts 282°
2026-05-01 14:34 40.92076 28.90483 4958 ft 245 kts 282°
2026-05-01 14:35 40.92277 28.88234 4961 ft 245 kts 282°
2026-05-01 14:35 40.92473 28.86012 4962 ft 245 kts 281°
2026-05-01 14:35 40.92668 28.83769 4958 ft 245 kts 281°
2026-05-01 14:35 40.92862 28.81536 4958 ft 246 kts 282°
2026-05-01 14:36 40.93345 28.79419 4943 ft 234 kts 312°
2026-05-01 14:36 40.94545 28.78135 4965 ft 224 kts 338°
2026-05-01 14:36 40.95933 28.77171 4963 ft 224 kts 337°
2026-05-01 14:36 40.97322 28.76326 4950 ft 212 kts 350°
2026-05-01 14:37 40.98738 28.76103 4961 ft 205 kts
2026-05-01 14:37 41.00167 28.76100 4963 ft 204 kts
2026-05-01 14:37 41.01598 28.76105 4963 ft 204 kts
2026-05-01 14:37 41.03016 28.76098 4960 ft 200 kts
2026-05-01 14:38 41.04391 28.76081 4962 ft 196 kts
2026-05-01 14:38 41.05747 28.76061 4964 ft 196 kts
2026-05-01 14:38 41.07117 28.76041 4725 ft 200 kts
2026-05-01 14:38 41.08478 28.76016 4452 ft 192 kts
2026-05-01 14:39 41.09781 28.75989 4188 ft 183 kts
2026-05-01 14:39 41.11024 28.75962 3811 ft 174 kts
2026-05-01 14:39 41.12188 28.75937 3454 ft 160 kts
2026-05-01 14:39 41.13268 28.75913 3083 ft 151 kts
2026-05-01 14:40 41.14277 28.75894 2728 ft 142 kts
2026-05-01 14:40 41.15217 28.75872 2502 ft 128 kts
2026-05-01 14:40 41.16067 28.75857 2319 ft 121 kts
2026-05-01 14:40 41.16862 28.75841 2177 ft 120 kts
2026-05-01 14:41 41.17709 28.75827 2035 ft 120 kts
2026-05-01 14:41 41.18550 28.75812 1873 ft 119 kts
2026-05-01 14:41 41.19374 28.75789 1708 ft 119 kts
2026-05-01 14:41 41.20206 28.75780 1533 ft 118 kts
2026-05-01 14:42 41.21024 28.75785 1348 ft 119 kts
2026-05-01 14:42 41.21849 28.75761 1195 ft 118 kts
2026-05-01 14:42 41.22676 28.75729 1046 ft 117 kts
2026-05-01 14:42 41.23500 28.75708 889 ft 117 kts
2026-05-01 14:43 41.24314 28.75704 727 ft 117 kts
2026-05-01 14:43 41.25132 28.75693 575 ft 116 kts
2026-05-01 14:43 41.25937 28.75677 404 ft 115 kts
2026-05-01 14:43 41.26715 28.75677 335 ft 94 kts
2026-05-01 14:44 41.27198 28.75662 334 ft 45 kts 354°
2026-05-01 14:44 41.27413 28.75514 334 ft 17 kts 262°
2026-05-01 14:44 41.27435 28.75368 334 ft 17 kts 336°
2026-05-01 14:45 41.27552 28.75362 334 ft 15 kts
2026-05-01 14:45 41.27610 28.75232 334 ft 11 kts 269°
2026-05-01 14:45 41.27609 28.75145 334 ft 5 kts 269°
2026-05-01 14:46 41.27582 28.75133 334 ft 3 kts 159°
2026-05-01 14:46 41.27553 28.75136 334 ft 0 kts 179°